Regional Weather Roundup
Issued by NWS

Home | Current Version | Previous Version | Text Only | Print | Product List | Glossary Off
Versions: 1 2 3 4 5 6 7 8 9 10 11 12 13 14 15 16 17 18 19 20 21 22 23 24 25 26 27 28 29 30 31 32 33 34 35 36 37 38 39 40 41 42 43 44 45 46 47 48 49 50

582
ASUS43 KFSD 212302
RWRSD

WEATHER ROUNDUP FOR SOUTH DAKOTA
NATIONAL WEATHER SERVICE SIOUX FALLS SD
600 PM CDT THU MAY 21 2015

NOTE: "FAIR" INDICATES FEW OR NO CLOUDS BELOW 12,000 FEET WITH NO
SIGNIFICANT WEATHER AND/OR OBSTRUCTIONS TO VISIBILITY.


SDZ001>005-009-010-012>017-220000-
NORTHWEST AND NORTH CENTRAL SOUTH DAKOTA

CITY           SKY/WX    TMP DP  RH WIND       PRES   REMARKS
BUFFALO          N/A     66  28  24 SE18      30.07F
FAITH            N/A     67  29  24 SE10G18   30.14F
MOBRIDGE       SUNNY     74  28  18 SW8       30.10F
$$

SDZ012>016-024>037-041>051-057-063-072>074-220000-
SOUTHWEST AND SOUTH CENTRAL SOUTH DAKOTA

CITY           SKY/WX    TMP DP  RH WIND       PRES   REMARKS
RAPID CTY ARPT SUNNY     63  35  35 S12G22    30.15F
PIERRE         SUNNY     71  32  23 CALM      30.13F
CUSTER         CLOUDY    49  36  61 SE9       30.18F
ELLSWORTH AFB  SUNNY     63  34  33 S16G22    30.14F
PHILIP         SUNNY     68  32  26 SE10      30.15F
PINE RIDGE     CLOUDY    60  39  45 S9        30.16F
WINNER         FAIR      69  31  24 S8        30.17F
$$

SDZ004>011-016>023-039-040-220000-
NORTHEAST SOUTH DAKOTA

CITY           SKY/WX    TMP DP  RH WIND       PRES   REMARKS
ABERDEEN       SUNNY     76  38  25 N12       30.10F
WATERTOWN      SUNNY     71  37  28 N17       30.11F
BROOKINGS      MOSUNNY   73  34  23 NW15G22   30.11F
$$

SDZ017-020-022-023-036>040-048>070-220000-
SOUTHEAST SOUTH DAKOTA

CITY           SKY/WX    TMP DP  RH WIND       PRES   REMARKS
SIOUX FALLS    PTSUNNY   73  36  25 N18G25    30.11F
HURON          MOSUNNY   75  35  23 NW8       30.11F
CHAMBERLAIN    SUNNY     69  36  29 SW6       30.16F
MITCHELL       MOSUNNY   74  36  25 W12       30.13F
YANKTON        SUNNY     72  37  28 W6        30.14F
$$

ABBREVIATIONS USED IN REMARKS
   TC - TEMPERATURE IN CELSIUS
  WCI - WIND CHILL INDEX
   HX - HEAT INDEX
  VSB - VISIBILITY




USA.gov is the U.S. government's official web portal to all federal, state and local government web resources and services.